map of PRC home
Great Circle Mapper logo
PRC - Airport
Location
City:  Prescott, Arizona, United States
Name:Ernest A. Love Field
ICAO / IATA:KPRC / PRC
FAA:PRC

Details
Type:Airport (Part 139 Class I)
Use:Public/Civil
Latitude:3439'17"N (34.654833)
Longitude:11225'09"W (-112.419221)
Datum:WGS 1984
Elevation:5044 ft (1537 m)
Variation:10.9E (WMM2015 magnetic declination)
Runways:3
Longest:7619 × 150 ft (2322 × 45.5 m), paved

Time
Time Zone:UTC-7
Local Time:

Weather
METAR:KPRC 211653Z 00000KT 10SM CLR 08/M03 A3014 RMK AO2 SLP184 T00831028
TAF:KPRC 211720Z 2118/2218 VRB04KT P6SM BKN200
FM220100 19005KT P6SM SCT200
FM221700 32010G18KT P6SM FEW060 FEW200

Related Locations
Nearby:
Farthest:RRG: 11373 mi / 18303 km
Plaine Corail, Rodrigues Island, MU

Find:

   beyond  
but within

Other Information
Maps:
Delays:
NOTAMs:
Links:
Sources:

  
flag of United States
flag of Arizona
  

Airport Diagram

Airport diagram for PRC

Airport diagram PDF

Sectional Chart

Flight Planning
at skyvector.com

Satellite Image

Google Maps Satellite View

 

Copyright © 2004-2014 Karl L. Swartz. All rights reserved.
The Great Circle Mapper name and logo are trademarks of the Great Circle Mapper.
All other trademarks mentioned herein belong to their respective owners.
Please see credits for attibutions and further copyright information.

  Follow gcmap on Facebook Follow gcmap on Twitter

hCard Microformat

Geo Microformat